Carson City, NV

2:22 AM PDT on March 30, 2017 (GMT -0700)
Carson

Weather History for KCXP - March, 2013

Change the Weather History Date:

Tuesday, March 5, 2013

  Actual Average Record
Temperature  
Mean Temperature 42 °F -  
Max Temperature 59 °F 54 °F 64 °F (2012)
Min Temperature 26 °F 27 °F 21 °F (2015)
Degree Days  
Heating Degree Days 22    
Moisture  
Dew Point 24 °F    
Average Humidity 52    
Maximum Humidity 93    
Minimum Humidity 22    
Precipitation  
Precipitation 0.00 in - - ()
Sea Level Pressure  
Sea Level Pressure 29.90 in    
Wind  
Wind Speed 5 mph (SSW)    
Max Wind Speed 20 mph    
Max Gust Speed 31 mph    
Visibility 10 miles    
Events      
Averages and records for this station are not official NWS values.
T = Trace of Precipitation, MM = Missing Value Source: NWS Daily Summary

Daily Weather History Graph

Daily Weather History Graph

Search for Another Location

Airport or City:

Trip Planner

Search our weather history database for the weather conditions in past years. The results will help you decide how hot, cold, wet, or windy it might be!

Date:

Astronomy

Mar. 05, 2013 Rise Set
Actual Time 6:25 AM PST 5:56 PM PST
Civil Twilight 5:58 AM PST 6:22 PM PST
Nautical Twilight 5:27 AM PST 6:53 PM PST
Astronomical Twilight 4:56 AM PST 7:24 PM PST
Moon 1:40 AM PST (3/5) 11:42 AM PST (3/5)
Length of Visible Light 12h 24m
Length of Day
11h 30m
Last Quarter, 39% of the Moon is Illuminated
Mar 5
Last Quarter
Mar 11
New
Mar 19
First Quarter
Mar 27
Full
Apr 2
Last Quarter

Hourly Weather History & Observations

Time (PST) Temp. Windchill Dew Point Humidity Pressure Visibility Wind Dir Wind Speed Gust Speed Precip Events Conditions
12:15 AM 32.0 °F - 30.2 °F 93% 30.04 in 10.0 mi Calm Calm - N/A   Clear
12:35 AM 32.0 °F 27.5 °F 28.4 °F 87% 30.04 in 10.0 mi North 4.6 mph - N/A   Clear
12:55 AM 32.0 °F - 28.4 °F 87% 30.04 in 10.0 mi Calm Calm - N/A   Clear
1:15 AM 32.0 °F - 28.4 °F 87% 30.04 in 10.0 mi Calm Calm - N/A   Clear
1:35 AM 32.0 °F - 28.4 °F 87% 30.04 in 10.0 mi Calm Calm - N/A   Clear
1:55 AM 30.2 °F - 26.6 °F 86% 30.03 in 10.0 mi Calm Calm - N/A   Clear
2:15 AM 28.4 °F 23.3 °F 26.6 °F 93% 30.02 in 10.0 mi East 4.6 mph - N/A   Clear
2:35 AM 28.4 °F - 26.6 °F 93% 30.02 in 10.0 mi Calm Calm - N/A   Clear
2:55 AM 30.2 °F - 26.6 °F 86% 30.01 in 10.0 mi Calm Calm - N/A   Clear
3:15 AM 28.4 °F - 26.6 °F 93% 30.00 in 10.0 mi Calm Calm - N/A   Clear
3:35 AM 28.4 °F 24.6 °F 26.6 °F 93% 30.00 in 10.0 mi East 3.5 mph - N/A   Clear
3:55 AM 26.6 °F - 24.8 °F 93% 30.00 in 10.0 mi Calm Calm - N/A   Clear
4:15 AM 28.4 °F - 26.6 °F 93% 30.00 in 10.0 mi Calm Calm - N/A   Clear
5:15 AM 28.4 °F - 24.8 °F 86% 30.00 in 10.0 mi Calm Calm - N/A   Clear
5:35 AM 26.6 °F - 23.0 °F 86% 30.00 in 10.0 mi Calm Calm - N/A   Clear
5:55 AM 26.6 °F - 23.0 °F 86% 30.00 in 10.0 mi Calm Calm - N/A   Clear
6:15 AM 26.6 °F - 24.8 °F 93% 30.00 in 10.0 mi Calm Calm - N/A   Clear
6:35 AM 26.6 °F 22.6 °F 24.8 °F 93% 29.99 in 10.0 mi NNW 3.5 mph - N/A   Clear
6:55 AM 28.4 °F - 24.8 °F 86% 29.98 in 10.0 mi Calm Calm - N/A   Clear
7:15 AM 30.2 °F - 26.6 °F 86% 29.99 in 10.0 mi Calm Calm - N/A   Clear
7:35 AM 32.0 °F - 26.6 °F 80% 29.99 in 10.0 mi Calm Calm - N/A   Clear
7:55 AM 32.0 °F - 28.4 °F 87% 29.98 in 10.0 mi Calm Calm - N/A   Clear
8:15 AM 37.4 °F - 32.0 °F 81% 29.98 in 10.0 mi Calm Calm - N/A   Clear
8:35 AM 41.0 °F - 32.0 °F 70% 29.98 in 10.0 mi Calm Calm - N/A   Clear
8:55 AM 46.4 °F 45.2 °F 26.6 °F 46% 29.98 in 10.0 mi West 3.5 mph - N/A   Clear
9:15 AM 48.2 °F - 28.4 °F 46% 29.97 in 10.0 mi Calm Calm - N/A   Clear
9:35 AM 51.8 °F - 24.8 °F 35% 29.96 in 10.0 mi South 6.9 mph - N/A   Clear
9:55 AM 53.6 °F - 24.8 °F 33% 29.95 in 10.0 mi South 5.8 mph - N/A   Clear
10:15 AM 55.4 °F - 24.8 °F 31% 29.95 in 10.0 mi SSW 6.9 mph - N/A   Partly Cloudy
10:35 AM 57.2 °F - 23.0 °F 27% 29.94 in 10.0 mi SSE 11.5 mph 18.4 mph N/A   Scattered Clouds
10:55 AM 57.2 °F - 23.0 °F 27% 29.93 in 10.0 mi South 13.8 mph 23.0 mph N/A   Partly Cloudy
11:15 AM 57.2 °F - 21.2 °F 25% 29.92 in 10.0 mi South 15.0 mph 25.3 mph N/A   Partly Cloudy
11:35 AM 57.2 °F - 23.0 °F 27% 29.91 in 10.0 mi South 11.5 mph 26.5 mph N/A   Partly Cloudy
11:55 AM 57.2 °F - 21.2 °F 25% 29.90 in 10.0 mi South 10.4 mph 28.8 mph N/A   Partly Cloudy
12:15 PM 57.2 °F - 21.2 °F 25% 29.89 in 10.0 mi South 12.7 mph 27.6 mph N/A   Clear
12:35 PM 59.0 °F - 19.4 °F 22% 29.88 in 10.0 mi SSE 9.2 mph 21.9 mph N/A   Partly Cloudy
12:55 PM 59.0 °F - 19.4 °F 22% 29.87 in 10.0 mi South 13.8 mph 21.9 mph N/A   Mostly Cloudy
1:15 PM 57.2 °F - 19.4 °F 23% 29.86 in 10.0 mi WSW 11.5 mph 18.4 mph N/A   Mostly Cloudy
1:35 PM 59.0 °F - 19.4 °F 22% 29.85 in 10.0 mi SW 12.7 mph 25.3 mph N/A   Mostly Cloudy
1:55 PM 59.0 °F - 19.4 °F 22% 29.84 in 10.0 mi SW 9.2 mph 23.0 mph N/A   Partly Cloudy
2:15 PM 57.2 °F - 23.0 °F 27% 29.83 in 10.0 mi West 19.6 mph 26.5 mph N/A   Clear
2:35 PM 59.0 °F - 21.2 °F 23% 29.83 in 10.0 mi WSW 12.7 mph 17.3 mph N/A   Clear
2:55 PM 57.2 °F - 23.0 °F 27% 29.83 in 10.0 mi WSW 12.7 mph 23.0 mph N/A   Clear
3:15 PM 57.2 °F - 23.0 °F 27% 29.82 in 10.0 mi WSW 12.7 mph 25.3 mph N/A   Clear
3:35 PM 57.2 °F - 23.0 °F 27% 29.82 in 10.0 mi SW 12.7 mph 20.7 mph N/A   Clear
3:55 PM 57.2 °F - 23.0 °F 27% 29.81 in 10.0 mi SSW 8.1 mph 24.2 mph N/A   Clear
4:15 PM 55.4 °F - 21.2 °F 26% 29.81 in 10.0 mi SW 10.4 mph 24.2 mph N/A   Clear
4:35 PM 55.4 °F - 23.0 °F 29% 29.81 in 10.0 mi SSW 13.8 mph 23.0 mph N/A   Clear
4:55 PM 53.6 °F - 24.8 °F 33% 29.81 in 10.0 mi SW 9.2 mph 17.3 mph N/A   Clear
5:15 PM 51.8 °F - 23.0 °F 33% 29.81 in 10.0 mi SSW 10.4 mph 17.3 mph N/A   Clear
5:35 PM 50.0 °F - 21.2 °F 32% 29.81 in 10.0 mi SSW 11.5 mph 20.7 mph N/A   Partly Cloudy
5:55 PM 50.0 °F - 23.0 °F 35% 29.81 in 10.0 mi SSW 10.4 mph 18.4 mph N/A   Clear
6:15 PM 48.2 °F - 23.0 °F 37% 29.82 in 10.0 mi SSW 8.1 mph - N/A   Clear
6:35 PM 48.2 °F - 23.0 °F 37% 29.82 in 10.0 mi SSW 13.8 mph 21.9 mph N/A   Clear
6:55 PM 48.2 °F - 23.0 °F 37% 29.81 in 10.0 mi SSW 9.2 mph - N/A   Clear
7:15 PM 46.4 °F 42.4 °F 24.8 °F 43% 29.81 in 10.0 mi South 8.1 mph - N/A   Clear
7:35 PM 46.4 °F 41.1 °F 24.8 °F 43% 29.80 in 10.0 mi South 11.5 mph 17.3 mph N/A   Clear
7:55 PM 46.4 °F 42.4 °F 24.8 °F 43% 29.79 in 10.0 mi SSW 8.1 mph 17.3 mph N/A   Clear
8:15 PM 44.6 °F 40.7 °F 23.0 °F 43% 29.80 in 10.0 mi South 6.9 mph - N/A   Clear
8:35 PM 44.6 °F 39.7 °F 21.2 °F 39% 29.80 in 10.0 mi South 9.2 mph - N/A   Clear
8:55 PM 46.4 °F 41.9 °F 21.2 °F 37% 29.80 in 10.0 mi South 9.2 mph 19.6 mph N/A   Clear
9:15 PM 44.6 °F 39.7 °F 23.0 °F 43% 29.80 in 10.0 mi SSW 9.2 mph 16.1 mph N/A   Clear
9:35 PM 46.4 °F 41.5 °F 23.0 °F 40% 29.78 in 10.0 mi South 10.4 mph - N/A   Clear
9:55 PM 46.4 °F 43.5 °F 23.0 °F 40% 29.77 in 10.0 mi WSW 5.8 mph 19.6 mph N/A   Clear
10:15 PM 46.4 °F 42.4 °F 23.0 °F 40% 29.77 in 10.0 mi SW 8.1 mph 18.4 mph N/A   Clear
10:35 PM 46.4 °F 40.7 °F 23.0 °F 40% 29.77 in 10.0 mi SSW 12.7 mph 25.3 mph N/A   Clear
10:55 PM 46.4 °F 40.4 °F 23.0 °F 40% 29.75 in 10.0 mi SW 13.8 mph 19.6 mph N/A   Partly Cloudy
11:15 PM 46.4 °F 41.1 °F 23.0 °F 40% 29.74 in 10.0 mi South 11.5 mph 17.3 mph N/A   Mostly Cloudy
11:35 PM 48.2 °F - 23.0 °F 37% 29.74 in 10.0 mi SSW 13.8 mph 27.6 mph N/A   Overcast
11:55 PM 46.4 °F 40.1 °F 24.8 °F 43% 29.74 in 10.0 mi South 15.0 mph 31.1 mph N/A   Overcast